When you browse on this site, cookies collect data to enhance your experience and personalize the content and advertising you see.
Visit our Privacy Policy to learn more. By continuing to use the site, you agree to this use of cookies and data.
  • In Germany
  • List of Countries
  • For 7 days
  • Water Temperature
  • Weather Map
  • Weather Widgets
  • user-avatar
    Login

    Hourly Weather Qala i Naw

    Today, 25 January, Saturday

    Time Temperature Precipitation Wind Pressure Humidity
    00:00 +2°C° 0 mm 2 mps 682 mmHg 69%
    01:00 +2°C° 0 mm 2 mps 682 mmHg 67%
    02:00 +2°C° 0 mm 2 mps 682 mmHg 65%
    03:00 +2°C° 0 mm 2 mps 682 mmHg 63%
    04:00 +2°C° 0 mm 2 mps 682 mmHg 61%
    05:00 +2°C° 0 mm 2 mps 682 mmHg 60%
    06:00 +2°C° 0 mm 2 mps 683 mmHg 59%
    07:00 +1°C° 0 mm 2 mps 683 mmHg 58%
    08:00 +3°C° 0 mm 2 mps 683 mmHg 57%
    09:00 +4°C° 0 mm 2 mps 684 mmHg 56%
    10:00 +7°C° 0 mm 1 mps 684 mmHg 51%
    11:00 +7°C° 0 mm 1 mps 684 mmHg 53%
    12:00 +8°C° 0 mm 1 mps 683 mmHg 55%
    13:00 +8°C° 0 mm 1 mps 683 mmHg 57%
    14:00 +6°C° 0 mm 2 mps 683 mmHg 63%
    15:00 +5°C° 0 mm 3 mps 683 mmHg 70%
    16:00 +4°C° 0 mm 4 mps 684 mmHg 77%
    17:00 +3°C° 0.1 mm 4 mps 684 mmHg 83%
    18:00 +2°C° 0.1 mm 3 mps 685 mmHg 89%
    19:00 +3°C° 0.1 mm 2 mps 685 mmHg 95%
    20:00 +3°C° 0.1 mm 2 mps 685 mmHg 96%
    21:00 +2°C° 0.1 mm 2 mps 686 mmHg 96%
    22:00 +3°C° 0.1 mm 1 mps 686 mmHg 97%
    23:00 +3°C° 0.1 mm 1 mps 685 mmHg 97%

    Tomorrow, 26 January, Sunday

    Time Temperature Precipitation Wind Pressure Humidity
    00:00 +3°C° 0.1 mm 1 mps 685 mmHg 96%
    01:00 +3°C° 0.1 mm 1 mps 685 mmHg 96%
    02:00 +3°C° 0.1 mm 1 mps 685 mmHg 94%
    03:00 +3°C° 0.1 mm 1 mps 684 mmHg 92%
    04:00 +2°C° 0.1 mm 1 mps 684 mmHg 90%
    05:00 +2°C° 0 mm 1 mps 684 mmHg 85%
    06:00 +1°C° 0 mm 1 mps 684 mmHg 80%
    07:00 +1°C° 0 mm 1 mps 684 mmHg 75%
    08:00 +2°C° 0 mm 1 mps 683 mmHg 70%
    09:00 +3°C° 0 mm 1 mps 683 mmHg 65%
    10:00 +4°C° 0 mm 1 mps 683 mmHg 59%
    11:00 +4°C° 0 mm 1 mps 682 mmHg 58%
    12:00 +5°C° 0 mm 1 mps 682 mmHg 57%
    13:00 +6°C° 0 mm 1 mps 681 mmHg 56%
    14:00 +6°C° 0 mm 1 mps 681 mmHg 55%
    15:00 +6°C° 0 mm 1 mps 681 mmHg 55%
    16:00 +6°C° 0 mm 1 mps 681 mmHg 55%
    17:00 +5°C° 0 mm 1 mps 681 mmHg 61%
    18:00 +4°C° 0 mm 1 mps 681 mmHg 66%
    19:00 +2°C° 0 mm 0 mps 681 mmHg 72%
    20:00 +3°C° 0 mm 1 mps 681 mmHg 73%
    21:00 +3°C° 0 mm 1 mps 681 mmHg 75%
    22:00 +2°C° 0 mm 1 mps 682 mmHg 76%
    23:00 +1°C° 0 mm 0 mps 681 mmHg 77%

    Day after tomorrow, 27 January, Monday

    Time Temperature Precipitation Wind Pressure Humidity
    00:00 +1°C° 0 mm 0 mps 681 mmHg 77%
    01:00 0°C° 0 mm 0 mps 681 mmHg 77%
    02:00 0°C° 0 mm 0 mps 681 mmHg 78%
    03:00 0°C° 0 mm 0 mps 681 mmHg 79%
    04:00 0°C° 0 mm 0 mps 682 mmHg 79%
    05:00 0°C° 0 mm 0 mps 682 mmHg 79%
    06:00 0°C° 0 mm 0 mps 683 mmHg 78%
    07:00 0°C° 0 mm 0 mps 683 mmHg 77%
    08:00 +2°C° 0 mm 1 mps 683 mmHg 72%
    09:00 +3°C° 0 mm 1 mps 684 mmHg 67%
    10:00 +4°C° 0 mm 1 mps 684 mmHg 63%
    11:00 +5°C° 0 mm 1 mps 684 mmHg 63%
    12:00 +4°C° 0 mm 2 mps 684 mmHg 63%
    13:00 +4°C° 0 mm 2 mps 683 mmHg 63%
    14:00 +3°C° 0 mm 3 mps 684 mmHg 65%
    15:00 +3°C° 0 mm 3 mps 684 mmHg 68%
    16:00 +3°C° 0 mm 3 mps 684 mmHg 71%
    17:00 +3°C° 0.1 mm 3 mps 685 mmHg 75%
    18:00 +2°C° 0.1 mm 3 mps 685 mmHg 78%
    19:00 +2°C° 0.1 mm 3 mps 686 mmHg 82%
    20:00 +2°C° 0.1 mm 2 mps 686 mmHg 85%
    21:00 +2°C° 0.1 mm 2 mps 686 mmHg 87%
    22:00 +2°C° 0.1 mm 1 mps 687 mmHg 90%
    23:00 +2°C° 0 mm 1 mps 687 mmHg 90%

    28 January, Tuesday

    Time Temperature Precipitation Wind Pressure Humidity
    00:00 +2°C° 0 mm 1 mps 686 mmHg 89%
    01:00 +1°C° 0 mm 1 mps 686 mmHg 89%
    02:00 +1°C° 0 mm 1 mps 686 mmHg 87%
    03:00 +1°C° 0 mm 1 mps 686 mmHg 86%
    04:00 0°C° 0 mm 1 mps 686 mmHg 84%
    05:00 0°C° 0 mm 1 mps 686 mmHg 82%
    06:00 0°C° 0 mm 1 mps 686 mmHg 80%
    07:00 0°C° 0 mm 1 mps 686 mmHg 78%
    08:00 +1°C° 0 mm 1 mps 686 mmHg 73%
    09:00 +2°C° 0 mm 1 mps 686 mmHg 68%
    10:00 +2°C° 0 mm 1 mps 686 mmHg 63%
    11:00 +3°C° 0 mm 1 mps 685 mmHg 60%
    12:00 +4°C° 0 mm 1 mps 685 mmHg 57%
    13:00 +3°C° 0 mm 2 mps 684 mmHg 54%
    14:00 +3°C° 0 mm 2 mps 684 mmHg 54%
    15:00 +4°C° 0 mm 1 mps 684 mmHg 55%
    16:00 +4°C° 0 mm 1 mps 684 mmHg 55%
    17:00 +3°C° 0 mm 1 mps 684 mmHg 59%
    18:00 +2°C° 0 mm 1 mps 684 mmHg 63%
    19:00 +2°C° 0 mm 1 mps 685 mmHg 68%
    20:00 +1°C° 0 mm 1 mps 685 mmHg 67%
    21:00 +1°C° 0 mm 1 mps 685 mmHg 66%
    22:00 +1°C° 0 mm 1 mps 685 mmHg 65%
    23:00 +1°C° 0 mm 1 mps 685 mmHg 63%

    29 January, Wednesday

    Time Temperature Precipitation Wind Pressure Humidity
    00:00 +1°C° 0 mm 1 mps 684 mmHg 62%
    01:00 0°C° 0 mm 1 mps 684 mmHg 60%
    02:00 0°C° 0 mm 1 mps 684 mmHg 58%
    03:00 0°C° 0 mm 1 mps 684 mmHg 56%
    04:00 0°C° 0 mm 1 mps 684 mmHg 54%
    05:00 0°C° 0 mm 1 mps 684 mmHg 52%
    06:00 0°C° 0 mm 1 mps 683 mmHg 50%
    07:00 0°C° 0 mm 1 mps 683 mmHg 48%
    08:00 +1°C° 0 mm 1 mps 684 mmHg 45%
    09:00 +2°C° 0 mm 1 mps 684 mmHg 41%
    10:00 +4°C° 0 mm 1 mps 684 mmHg 37%
    11:00 +5°C° 0 mm 1 mps 683 mmHg 37%
    12:00 +5°C° 0 mm 1 mps 682 mmHg 38%
    13:00 +6°C° 0 mm 1 mps 682 mmHg 39%
    14:00 +6°C° 0 mm 1 mps 682 mmHg 40%
    15:00 +6°C° 0 mm 1 mps 682 mmHg 41%
    16:00 +6°C° 0 mm 1 mps 682 mmHg 43%
    17:00 +5°C° 0 mm 1 mps 682 mmHg 44%
    18:00 +3°C° 0 mm 2 mps 682 mmHg 46%
    19:00 +2°C° 0 mm 2 mps 682 mmHg 48%
    20:00 +2°C° 0 mm 2 mps 682 mmHg 46%
    21:00 +2°C° 0 mm 2 mps 682 mmHg 44%
    22:00 +1°C° 0 mm 2 mps 682 mmHg 43%
    23:00 +1°C° 0 mm 2 mps 682 mmHg 41%

    30 January, Thursday

    Time Temperature Precipitation Wind Pressure Humidity
    00:00 +1°C° 0 mm 2 mps 682 mmHg 40%
    01:00 0°C° 0 mm 3 mps 682 mmHg 39%
    02:00 0°C° 0 mm 3 mps 682 mmHg 38%
    03:00 +1°C° 0 mm 3 mps 682 mmHg 38%
    04:00 +1°C° 0 mm 3 mps 681 mmHg 37%
    05:00 +1°C° 0 mm 3 mps 681 mmHg 37%
    06:00 +1°C° 0 mm 3 mps 682 mmHg 37%
    07:00 +1°C° 0 mm 3 mps 682 mmHg 37%
    08:00 +2°C° 0 mm 3 mps 682 mmHg 36%
    09:00 +4°C° 0 mm 3 mps 682 mmHg 35%
    10:00 +6°C° 0 mm 2 mps 682 mmHg 34%
    11:00 +7°C° 0 mm 2 mps 682 mmHg 36%
    12:00 +8°C° 0 mm 2 mps 681 mmHg 38%
    13:00 +8°C° 0 mm 2 mps 681 mmHg 40%
    14:00 +8°C° 0 mm 2 mps 681 mmHg 43%
    15:00 +8°C° 0 mm 2 mps 681 mmHg 46%
    16:00 +7°C° 0 mm 2 mps 681 mmHg 49%
    17:00 +7°C° 0 mm 2 mps 681 mmHg 50%
    18:00 +6°C° 0 mm 2 mps 681 mmHg 51%
    19:00 +5°C° 0 mm 2 mps 681 mmHg 51%
    20:00 +4°C° 0 mm 2 mps 681 mmHg 51%
    21:00 +4°C° 0 mm 2 mps 681 mmHg 50%
    22:00 +4°C° 0 mm 2 mps 681 mmHg 50%
    23:00 +3°C° 0 mm 2 mps 681 mmHg 50%
    Show more